FW0574 Weather Reports


time (UTC)temp
F
wind
direction
speed
knots
gust
knots
rain 1hr
in
rain 24hr
in
rain mn
in
humidity
%
barometer
mb
20260507040833 60 270 1.7 3.5 0.00 0.00 0.00 88 1013.9
20260507040331 60 270 1.7 3.5 0.00 0.00 0.00 88 1013.9
20260507035333 60 293 1.7 4.3 0.00 0.00 0.00 86 1013.9
20260507034832 60 270 2.6 4.3 0.00 0.00 0.00 86 1013.9
20260507033834 61 270 3.5 5.2 0.00 0.00 0.00 85 1013.5
20260507033333 61 270 2.6 5.2 0.00 0.00 0.00 85 1013.5
20260507032833 62 270 1.7 3.5 0.00 0.00 0.00 83 1013.5
20260507032331 62 270 0.9 4.3 0.00 0.00 0.00 81 1013.5
20260507031826 62 293 1.7 4.3 0.00 0.00 0.00 81 1013.2
20260507031321 62 293 2.6 3.5 0.00 0.00 0.00 81 1013.2
20260507030820 63 270 1.7 4.3 0.00 0.00 0.00 80 1012.8
20260507030314 63 270 2.6 5.2 0.00 0.00 0.00 80 1013.2
20260507025813 64 270 2.6 5.2 0.00 0.00 0.00 79 1012.8
20260507024812 65 270 1.7 4.3 0.00 0.00 0.00 75 1012.8
20260507024310 66 225 1.7 3.5 0.00 0.00 0.00 74 1012.8
20260507023809 67 248 0.9 3.5 0.00 0.00 0.00 73 1012.8
20260507023308 67 315 0.9 5.2 0.00 0.00 0.00 71 1012.5
20260507022811 67 45 2.6 5.2 0.00 0.00 0.00 71 1012.5
20260507022301 68 270 1.7 4.3 0.00 0.00 0.00 70 1012.8
20260507021300 69 338 2.6 6.1 0.00 0.00 0.00 65 1012.5
20260507020755 70 225 3.5 5.2 0.00 0.00 0.00 65 1012.5
20260507020255 71 270 1.7 5.2 0.00 0.00 0.00 61 1012.5
20260507015755 72 293 1.7 5.2 0.00 0.00 0.00 61 1012.2
20260507015256 72 203 2.6 5.2 0.00 0.00 0.00 61 1012.2
20260507014257 72 293 3.5 7.0 0.00 0.00 0.00 59 1012.5
20260507013754 73 270 3.5 7.0 0.00 0.00 0.00 58 1012.2
20260507013254 73 270 2.6 6.1 0.00 0.00 0.00 58 1012.2
20260507012754 73 338 2.6 6.1 0.00 0.00 0.00 58 1012.2
20260507012251 73 270 3.5 7.0 0.00 0.00 0.00 58 1012.2
20260507011753 73 225 4.3 7.0 0.00 0.00 0.00 58 1012.2
20260507010744 74 293 3.5 7.0 0.00 0.00 0.00 56 1012.5
20260507010239 74 315 5.2 7.0 0.00 0.00 0.00 55 1012.2
20260507005740 74 270 3.5 7.0 0.00 0.00 0.00 55 1012.2
20260507005239 74 315 5.2 8.7 0.00 0.00 0.00 55 1012.2
20260507004736 75 270 5.2 8.7 0.00 0.00 0.00 54 1012.5
20260507004238 77 248 2.6 5.2 0.00 0.00 0.00 54 1012.2
20260507003736 76 270 2.6 7.0 0.00 0.00 0.00 54 1012.2
20260507003237 76 270 5.2 7.0 0.00 0.00 0.00 54 1012.2
20260507002735 77 270 2.6 7.0 0.00 0.00 0.00 53 1012.2
20260507001736 78 270 4.3 7.0 0.00 0.00 0.00 50 1012.2
20260507001235 79 315 3.5 6.1 0.00 0.00 0.00 50 1012.2
20260507000733 79 270 2.6 6.1 0.00 0.00 0.00 49 1012.2
20260507000234 80 225 1.7 3.5 0.00 0.00 0.00 48 1011.8
20260506235735 80 270 1.7 5.2 0.00 0.00 0.00 48 1012.2
20260506235233 80 270 3.5 5.2 0.00 0.00 0.00 49 1012.2
20260506234734 81 270 1.7 6.1 0.00 0.00 0.00 48 1012.2
20260506233734 80 270 1.7 7.0 0.00 0.00 0.00 49 1012.2
20260506232736 80 270 3.5 5.2 0.00 0.00 0.00 48 1012.2
20260506231732 81 135 2.6 7.8 0.00 0.00 0.00 49 1012.5
20260506231235 81 180 3.5 7.8 0.00 0.00 0.00 48 1012.5
20260506230734 81 203 3.5 8.7 0.00 0.00 0.00 48 1012.5
20260506230235 81 203 3.5 8.7 0.00 0.00 0.00 46 1012.2
20260506225734 82 270 2.6 6.1 0.00 0.00 0.00 46 1012.5
20260506225235 81 225 3.5 7.8 0.00 0.00 0.00 46 1012.5
20260506224224 81 248 3.5 6.1 0.00 0.00 0.00 46 1012.5
20260506223724 81 270 2.6 7.0 0.00 0.00 0.00 46 1012.8
20260506223221 80 293 5.2 7.0 0.00 0.00 0.00 46 1012.8
20260506222722 84 270 3.5 6.1 0.00 0.00 0.00 43 1012.8
20260506222213 84 293 2.6 4.3 0.00 0.00 0.00 43 1012.8
20260506220705 85 270 2.6 3.5 0.00 0.00 0.00 40 1013.2
20260506220201 87 270 1.7 4.3 0.00 0.00 0.00 40 1013.2
20260506215201 85 225 1.7 3.5 0.00 0.00 0.00 41 1013.2
20260506214659 85 248 1.7 4.3 0.00 0.00 0.00 43 1013.2
20260506213654 86 248 1.7 4.3 0.00 0.00 0.00 40 1013.5
20260506213156 87 315 1.7 4.3 0.00 0.00 0.00 40 1013.5
20260506212154 86 203 0.9 1.7 0.00 0.00 0.00 40 1013.5
20260506211657 85 293 0.9 5.2 0.00 0.00 0.00 41 1013.9
20260506211156 85 270 1.7 5.2 0.00 0.00 0.00 43 1013.9
20260506210657 85 270 1.7 3.5 0.00 0.00 0.00 41 1013.9
20260506210155 84 270 0.9 3.5 0.00 0.00 0.00 44 1013.9
20260506205653 82 315 1.7 5.2 0.00 0.00 0.00 45 1013.9
20260506205152 83 270 2.6 6.1 0.00 0.00 0.00 44 1014.2
20260506204146 80 270 3.5 5.2 0.00 0.00 0.00 45 1014.2
20260506203637 84 315 1.7 6.1 0.00 0.00 0.00 43 1014.2
20260506203137 83 293 2.6 6.1 0.00 0.00 0.00 43 1014.2
20260506202638 85 225 0.9 3.5 0.00 0.00 0.00 41 1014.2
20260506202137 83 270 0.9 5.2 0.00 0.00 0.00 45 1014.5
20260506201636 82 270 1.7 5.2 0.00 0.00 0.00 45 1014.2
20260506200635 81 293 2.6 5.2 0.00 0.00 0.00 46 1014.5
20260506200136 81 338 0.9 6.1 0.00 0.00 0.00 48 1014.5
20260506195633 78 270 3.5 6.1 0.00 0.00 0.00 49 1014.5
20260506195129 81 225 1.7 5.2 0.00 0.00 0.00 46 1014.5
20260506194628 81 338 0.9 4.3 0.00 0.00 0.00 45 1014.5
20260506194128 78 225 2.6 6.1 0.00 0.00 0.00 50 1014.5
20260506193629 78 338 3.5 6.1 0.00 0.00 0.00 50 1014.5
20260506193120 80 270 2.6 6.1 0.00 0.00 0.00 46 1014.5
20260506192117 82 293 1.7 4.3 0.00 0.00 0.00 45 1014.9
20260506191615 79 113 1.7 4.3 0.00 0.00 0.00 48 1014.9
20260506191116 79 270 1.7 3.5 0.00 0.00 0.00 49 1015.2
20260506190618 80 180 1.7 3.5 0.00 0.00 0.00 50 1015.2
20260506190117 78 135 1.7 4.3 0.00 0.00 0.00 50 1014.9
20260506185610 78 180 1.7 4.3 0.00 0.00 0.00 50 1015.2
20260506185105 79 225 0.9 3.5 0.00 0.00 0.00 49 1014.9
20260506184604 77 293 1.7 3.5 0.00 0.00 0.00 50 1015.2
20260506184104 77 315 1.7 3.5 0.00 0.00 0.00 51 1015.2
20260506183604 76 270 1.7 3.5 0.00 0.00 0.00 53 1015.2
20260506183104 76 293 1.7 3.5 0.00 0.00 0.00 54 1015.2
20260506182058 75 203 1.7 3.5 0.00 0.00 0.00 53 1015.2
20260506180558 72 315 2.6 5.2 0.00 0.00 0.00 56 1015.6
20260506175559 73 270 1.7 3.5 0.00 0.00 0.00 56 1015.2
20260506175057 74 270 1.7 3.5 0.00 0.00 0.00 55 1015.2
20260506174556 74 270 0.9 4.3 0.00 0.00 0.00 55 1015.6
20260506173558 73 68 0.9 3.5 0.00 0.00 0.00 56 1015.2
20260506173057 71 0 1.7 2.6 0.00 0.00 0.00 60 1015.2
20260506172553 70 315 1.7 2.6 0.00 0.00 0.00 61 1015.6
20260506172050 71 315 0.9 5.2 0.00 0.00 0.00 63 1015.6
20260506171545 68 270 2.6 5.2 0.00 0.00 0.00 63 1015.6
20260506171047 68 338 1.7 3.5 0.00 0.00 0.00 65 1015.6
20260506170038 67 270 1.7 3.5 0.00 0.00 0.00 68 1015.6
20260506165037 66 203 0.9 1.7 0.00 0.00 0.00 69 1015.6
20260506164539 66 338 0.0 1.7 0.00 0.00 0.00 70 1015.6
20260506163534 65 270 0.0 1.7 0.00 0.00 0.00 73 1015.6
20260506163027 63 293 0.9 2.6 0.00 0.00 0.00 74 1015.6
20260506162525 63 248 0.9 2.6 0.00 0.00 0.00 74 1015.6
20260506161520 64 315 0.9 2.6 0.00 0.00 0.00 74 1015.6
20260506161020 63 180 0.9 2.6 0.00 0.00 0.00 75 1015.6
20260506160519 64 293 0.0 1.7 0.00 0.00 0.00 74 1015.6
20260506160021 64 338 0.9 2.6 0.00 0.00 0.00 73 1015.6
20260506155521 64 270 1.7 2.6 0.00 0.00 0.00 71 1015.6
20260506155020 64 270 0.9 2.6 0.00 0.00 0.00 74 1015.6
20260506154520 64 270 0.9 4.3 0.00 0.00 0.00 75 1015.6
20260506154020 63 293 2.6 4.3 0.00 0.00 0.00 74 1015.6
20260506153512 64 315 0.9 1.7 0.00 0.00 0.00 74 1015.6
20260506152512 62 270 0.0 4.3 0.00 0.00 0.00 78 1015.6
20260506152001 62 293 0.9 4.3 0.00 0.00 0.00 78 1015.6
20260506151454 61 270 0.9 2.6 0.00 0.00 0.00 80 1015.6
20260506150956 60 270 0.9 4.3 0.00 0.00 0.00 81 1015.6
20260506145951 60 293 1.7 2.6 0.00 0.00 0.00 81 1015.6
20260506145451 60 270 0.0 2.6 0.00 0.00 0.00 81 1015.6
20260506144944 59 293 0.0 1.7 0.00 0.00 0.00 83 1015.6
20260506143927 58 293 1.7 2.6 0.00 0.00 0.00 83 1015.6
20260506143429 58 270 0.0 1.7 0.00 0.00 0.00 83 1015.6
20260506141923 58 270 0.0 0.9 0.00 0.00 0.00 86 1015.6
20260506141423 58 293 0.0 0.0 0.00 0.00 0.00 86 1015.6
20260506140922 57 270 0.0 0.9 0.00 0.00 0.00 86 1015.6
20260506140427 57 270 0.0 0.9 0.00 0.00 0.00 86 1015.6
20260506135924 57 270 0.0 0.0 0.00 0.00 0.00 86 1015.2
20260506135424 57 270 0.0 0.0 0.00 0.00 0.00 88 1015.2
20260506133918 57 270 0.0 0.0 0.00 0.00 0.00 88 1014.9
20260506133407 57 270 0.0 1.7 0.00 0.00 0.00 88 1014.9
20260506132906 57 270 0.0 1.7 0.00 0.00 0.00 86 1014.9
20260506131904 57 270 0.0 0.0 0.00 0.00 0.00 86 1014.9
20260506131404 57 270 0.0 0.0 0.00 0.00 0.00 86 1014.9
20260506130904 57 270 0.0 0.0 0.00 0.00 0.00 86 1014.5
20260506130405 57 270 0.0 0.9 0.00 0.00 0.00 88 1014.9
20260506125906 57 270 0.0 0.9 0.00 0.00 0.00 88 1014.5
20260506125404 57 293 0.0 0.9 0.00 0.00 0.00 88 1014.5
20260506124903 57 270 0.0 2.6 0.00 0.00 0.00 88 1014.5
20260506124403 57 180 0.9 2.6 0.00 0.00 0.00 88 1014.5
20260506123906 57 270 0.0 1.7 0.00 0.00 0.00 88 1014.5
20260506123402 57 270 0.9 2.6 0.00 0.00 0.00 88 1014.5
20260506122858 57 315 0.9 2.6 0.00 0.00 0.00 88 1014.5
20260506122357 57 270 0.0 1.7 0.00 0.00 0.00 88 1014.5
20260506121852 57 270 0.0 2.6 0.00 0.00 0.00 88 1014.5
20260506121353 57 293 0.9 2.6 0.00 0.00 0.00 88 1014.5
20260506120826 57 270 0.0 1.7 0.00 0.00 0.00 88 1014.5
20260506120326 57 270 1.7 1.7 0.00 0.00 0.00 88 1014.2
20260506115827 57 270 0.9 1.7 0.00 0.00 0.00 88 1014.2
20260506115324 57 270 0.0 1.7 0.00 0.00 0.00 86 1014.2
20260506114814 57 293 0.0 0.0 0.00 0.00 0.00 86 1014.2
20260506114313 57 293 0.0 0.9 0.00 0.00 0.00 86 1014.2
20260506113814 57 270 0.0 1.7 0.00 0.00 0.00 86 1014.2
20260506113312 57 270 0.0 1.7 0.00 0.00 0.00 86 1014.2
20260506112808 57 270 0.0 1.7 0.00 0.00 0.00 86 1014.2
20260506111809 57 270 0.9 1.7 0.00 0.00 0.00 86 1014.2
20260506111308 57 270 0.0 0.9 0.00 0.00 0.00 86 1013.9
20260506110808 57 293 0.0 0.9 0.00 0.00 0.00 86 1014.2
20260506110308 57 338 0.0 0.9 0.00 0.00 0.00 86 1014.2
20260506105807 57 293 0.0 0.0 0.00 0.00 0.00 86 1014.2
20260506105307 57 270 0.0 0.0 0.00 0.00 0.00 86 1013.9
20260506104807 57 270 0.0 0.0 0.00 0.00 0.00 86 1013.9
20260506103811 57 270 0.0 0.0 0.00 0.00 0.00 86 1013.9
20260506102807 57 293 0.0 0.0 0.00 0.00 0.00 86 1013.9
20260506102309 57 270 0.0 0.0 0.00 0.00 0.00 86 1014.2
20260506101808 57 225 0.0 0.0 0.00 0.00 0.00 86 1013.9
20260506101309 57 270 0.0 0.0 0.00 0.00 0.00 86 1013.9
20260506100808 57 270 0.0 0.9 0.00 0.00 0.00 86 1013.9
20260506100306 57 248 0.0 0.9 0.00 0.00 0.00 86 1013.9
20260506095808 57 270 0.0 0.9 0.00 0.00 0.00 86 1013.9
20260506095309 57 270 0.0 0.9 0.00 0.00 0.00 86 1013.9
20260506094807 57 270 0.0 0.0 0.00 0.00 0.00 86 1013.9
20260506094310 57 270 0.0 0.0 0.00 0.00 0.00 86 1013.9
20260506093807 57 270 0.0 0.0 0.00 0.00 0.00 86 1013.9
20260506093307 57 293 0.0 0.0 0.00 0.00 0.00 86 1013.9
20260506092807 57 270 0.0 2.6 0.00 0.00 0.00 86 1014.2
20260506092309 57 270 0.9 2.6 0.00 0.00 0.00 86 1014.2
20260506091809 57 293 0.0 1.7 0.00 0.00 0.00 86 1013.9
20260506091309 57 270 0.0 0.0 0.00 0.00 0.00 86 1013.9
20260506090810 57 270 0.0 0.0 0.00 0.00 0.00 86 1013.9
20260506090308 57 270 0.0 0.9 0.00 0.00 0.00 86 1013.9
20260506085807 57 338 0.0 0.9 0.00 0.00 0.00 86 1013.9
20260506085307 57 270 0.0 0.0 0.00 0.00 0.00 86 1013.9
20260506084307 57 270 0.0 1.7 0.00 0.00 0.00 86 1013.9
20260506083800 57 270 0.0 1.7 0.00 0.00 0.00 86 1013.9
20260506083259 57 293 0.0 1.7 0.00 0.00 0.00 86 1013.9
20260506082757 57 270 0.0 1.7 0.00 0.00 0.00 85 1013.9
20260506082253 57 270 0.0 1.7 0.00 0.00 0.00 85 1013.9
20260506081254 57 270 0.0 1.7 0.00 0.00 0.00 85 1013.9
20260506080248 58 248 0.9 2.6 0.00 0.00 0.00 85 1013.9
20260506072247 58 270 1.7 2.6 0.00 0.00 0.00 83 1013.5
20260506071748 58 270 1.7 2.6 0.00 0.00 0.00 83 1013.5
20260506070328 58 270 0.9 3.5 0.00 0.00 0.00 83 1013.5
20260506061822 58 270 0.9 2.6 0.00 0.00 0.00 81 1013.2
20260506061313 58 270 1.7 2.6 0.00 0.00 0.00 81 1013.2
20260506060812 58 270 1.7 2.6 0.00 0.00 0.00 81 1013.2
20260506060315 58 270 0.0 1.7 0.00 0.00 0.00 80 1012.8
20260506051306 59 270 0.0 0.0 0.00 0.00 0.00 78 1012.8
20260506050306 59 270 0.0 0.0 0.00 0.00 0.00 78 1012.8
20260506044809 59 293 0.0 0.0 0.00 0.00 0.00 76 1012.8
20260506044308 59 293 0.0 0.9 0.00 0.00 0.00 76 1012.5
20260506043808 59 270 0.0 0.9 0.00 0.00 0.00 76 1012.5
20260506043308 59 225 0.0 0.0 0.00 0.00 0.00 76 1012.5
20260506042807 59 270 0.0 0.9 0.00 0.00 0.00 76 1012.5
20260506041806 59 270 0.0 0.0 0.00 0.00 0.00 76 1012.5
20260506041307 59 225 0.0 0.0 0.00 0.00 0.00 76 1012.2